Location: Unspecified
(0.0000°N, 0.0000°E)
Time: 19:50:43
(UTC+00:00)

Tiros 1 - Pass Details

Date: 29 October 2021
Orbit: 630 x 664 km, 48.4° (Epoch: 04 December)

Event Time Altitude Azimuth Distance (km) Brightness Sun altitude
Rises 04:10:22 0° 198° (SSW) 2,973 10.5 -22.7°
Reaches altitude 10° 04:13:02 10° 185° (S) 2,065 9.8 -22.0°
Maximum altitude 04:17:00 26° 129° (SE) 1,304 9.4 -21.1°
Drops below altitude 10° 04:20:57 10° 73° (ENE) 2,070 10.6 -20.1°
Sets 04:23:37 0° 61° (ENE) 2,981 11.3 -19.5°
